Location: Marcé
(47.5801°N, 0.3280°W)
Time: 05:29:52
(UTC+01:00)

ISS - Pass Details

Date: 27 October 2021
Orbit: 417 x 422 km, 51.6° (Epoch: 04 December)

Event Time Altitude Azimuth Distance (km) Brightness Sun altitude
Exits shadow 06:21:19 43° 106° (ESE) 605 -2.6 -23.5°
Drops below altitude 10° 06:23:55 10° 72° (ENE) 1,501 0.1 -23.1°
Sets 06:26:03 0° 67° (ENE) 2,366 1.3 -22.8°
